Location: Godiavel Galaoual
(15.2485°N, 12.6604°W)
Time: 01:31:39
(UTC+00:00)

Explorer 7 - Pass Details

Date: 19 June 2021
Orbit: 484 x 676 km, 50.3° (Epoch: 29 July)

Event Time Altitude Azimuth Distance (km) Brightness Sun altitude
Rises 06:35:24 0° 309° (NW) 2,736 10.1 2.3°
Reaches altitude 10° 06:37:50 10° 300° (WNW) 1,805 9.1 2.8°
Maximum altitude 06:41:34 35° 234° (SW) 861 7.4 3.7°
Drops below altitude 10° 06:45:07 10° 168° (SSE) 1,712 9.3 4.5°
Sets 06:47:23 0° 158° (SSE) 2,572 10.2 5.0°
